Weather reports worldwide

Advertisment
Doberlug/Kirchhain, Germany (10490): temperature & dewpoint: 20.09.2018 17:00:00 - 26.09.2018 17:00:00 (CEST)Doberlug/Kirchhain, Germany (10490): temperature 5cm & temperature -5cm: 20.09.2018 17:00:00 - 26.09.2018 17:00:00 (CEST)Doberlug/Kirchhain, Germany (10490): temperature -20cm & temperature -100cm: 20.09.2018 17:00:00 - 26.09.2018 17:00:00 (CEST)Doberlug/Kirchhain, Germany (10490): wind speed & gusts: 20.09.2018 17:00:00 - 26.09.2018 17:00:00 (CEST)Doberlug/Kirchhain, Germany (10490): wind direction: 20.09.2018 17:00:00 - 26.09.2018 17:00:00 (CEST)Doberlug/Kirchhain, Germany (10490): reduced air pressure: 20.09.2018 17:00:00 - 26.09.2018 17:00:00 (CEST)Doberlug/Kirchhain, Germany (10490): visibility: 20.09.2018 17:00:00 - 26.09.2018 17:00:00 (CEST)Doberlug/Kirchhain, Germany (10490): sunshine duration: 20.09.2018 17:00:00 - 26.09.2018 17:00:00 (CEST)Doberlug/Kirchhain, Germany (10490): precipitation: 20.09.2018 17:00:00 - 26.09.2018 17:00:00 (CEST)
Date & Time tt [°C] td [°C] tt 5cm [°C] tt -5cm [°C] tt -20cm [°C] tt -100cm [°C] ff [km/h] ff [kn] fx [km/h] fx [kn] dd ppp [hPa] vv [km] sd [min] rr [mm]
26.09.2018 17:00:00 16,2 1,3 16,7 14,8 13,4 16,5 14 8 30 16 SW 1030,7 68 20 0,0
26.09.2018 16:00:00 15,9 0,7 16,5 15,7 12,9 16,6 22 12 34 18 SW 1031,3 57 36 0,0
26.09.2018 15:00:00 15,7 0,1 17,0 15,9 12,3 16,6 24 13 38 20 SW 1032,2 34 54 0,0
26.09.2018 14:00:00 15,2 -0,2 16,5 15,6 11,4 16,6 21 12 34 18 SW 1033,5 32 58 0,0
26.09.2018 13:00:00 15,0 0,0 17,3 14,2 10,4 16,7 17 9 37 20 SW 1034,2 31 53 0,0
26.09.2018 12:00:00 14,0 0,5 15,9 12,6 9,4 16,7 22 12 31 17 WSW 1034,6 34 60 0,0
26.09.2018 11:00:00 11,6 2,0 13,1 9,8 8,7 16,7 14 8 29 16 SW 1035,7 39 49 0,0
26.09.2018 10:00:00 8,2 2,5 9,1 7,4 8,3 16,8 9 5 18 10 SSW 1036,5 45 60 0,0
26.09.2018 09:00:00 4,5 2,0 3,8 5,1 8,2 16,8 11 6 18 10 S 1036,2 31 16 0,0
26.09.2018 08:00:00 2,2 1,3 1,4 4,4 8,4 16,8 7 4 13 7 S 1036,8 21 0 0,0
26.09.2018 07:00:00 1,7 1,0 0,6 4,1 8,7 16,8 6 3 10 5 S 1037,1 18 0 0,0
26.09.2018 06:00:00 2,0 1,1 0,2 4,4 9,1 16,8 7 4 15 8 S 1037,3 21 0 0,0
26.09.2018 05:00:00 2,0 1,2 0,4 4,8 9,4 16,9 8 4 14 8 S 1037,6 22 0 0,0
26.09.2018 04:00:00 2,0 1,2 0,4 5,2 9,8 16,9 9 5 12 6 S 1038,0 27 0 0,0
26.09.2018 03:00:00 2,4 1,3 0,2 5,6 10,2 16,9 5 3 10 5 S 1038,6 38 0 0,0
26.09.2018 02:00:00 2,8 1,6 1,2 6,1 10,7 16,9 7 4 11 6 S 1038,5 47 0 0,0
26.09.2018 01:00:00 3,4 2,0 1,8 6,6 11,2 16,9 6 4 9 5 S 1038,8 46 0 0,0
26.09.2018 00:00:00 3,6 2,0 1,2 7,3 11,7 17,0 5 3 9 5 S 1039,1 42 0 0,0
25.09.2018 23:00:00 4,6 2,3 3,2 8,1 12,2 17,0 7 4 10 5 S 1039,2 40 0 0,0
25.09.2018 22:00:00 5,2 2,9 3,2 8,9 12,7 17,0 7 4 9 5 SSW 1039,0 36 0 0,0
25.09.2018 21:00:00 6,2 3,1 4,2 9,9 13,3 17,1 3 2 6 4 SW 1038,9 45 0 0,0
25.09.2018 20:00:00 7,7 2,4 4,1 11,3 13,8 17,1 5 3 9 5 W 1038,5 70 0 0,0
25.09.2018 19:00:00 11,2 2,3 8,5 13,1 14,1 17,2 8 4 19 10 WNW 1037,9 70 38 0,0
25.09.2018 18:00:00 13,0 0,5 13,1 14,6 14,0 17,2 14 7 23 12 WNW 1037,3 70 45 0,0
25.09.2018 17:00:00 13,9 0,0 15,7 15,9 13,7 17,2 18 10 27 15 WNW 1037,4 42 60 0,0
25.09.2018 16:00:00 14,0 0,9 16,5 15,6 13,2 17,3 18 10 27 15 NNW 1037,5 46 43 0,0
25.09.2018 15:00:00 13,5 2,2 16,0 15,9 12,6 17,3 18 10 29 16 NW 1037,7 58 54 0,0
25.09.2018 14:00:00 13,1 2,0 16,1 14,9 11,8 17,4 20 11 33 18 WNW 1037,8 55 47 0,0
25.09.2018 13:00:00 12,4 3,3 15,0 14,1 10,8 17,4 20 11 32 17 NW 1037,7 52 46 0,0
25.09.2018 12:00:00 11,4 4,7 14,0 12,6 9,9 17,5 20 11 29 16 WNW 1037,6 41 56 0,0
25.09.2018 11:00:00 9,9 4,6 11,7 10,1 9,2 17,5 17 9 26 14 NW 1037,3 58 60 0,0
25.09.2018 10:00:00 8,6 4,8 9,7 7,6 8,8 17,5 17 9 30 16 NW 1037,1 49 60 0,0
25.09.2018 09:00:00 6,4 3,6 6,5 5,7 8,8 17,6 18 10 29 16 WNW 1036,5 31 60 0,0
25.09.2018 08:00:00 5,0 3,1 4,0 5,1 9,0 17,6 15 8 22 12 WNW 1035,6 46 16 0,0
25.09.2018 07:00:00 4,8 3,0 3,3 5,2 9,3 17,6 13 7 21 11 WNW 1035,0 47 0 0,0
25.09.2018 06:00:00 5,2 3,2 3,7 5,4 9,6 17,7 13 7 23 12 WNW 1034,2 57 0 0,0
25.09.2018 05:00:00 5,3 3,4 3,7 5,7 9,9 17,7 14 8 25 14 W 1033,7 58 0 0,0
25.09.2018 04:00:00 5,8 3,5 4,4 6,1 10,2 17,7 17 9 29 15 W 1033,1 68 0 0,0
25.09.2018 03:00:00 6,1 3,6 4,8 6,4 10,5 17,8 19 10 29 16 W 1032,8 70 0 0,0
25.09.2018 02:00:00 6,5 3,9 5,1 6,7 10,8 17,8 16 9 26 14 W 1032,4 70 0 0,0
25.09.2018 01:00:00 6,8 4,0 5,4 7,1 11,2 17,8 16 9 29 15 W 1032,0 70 0 0,0
25.09.2018 00:00:00 7,4 4,3 6,0 7,6 11,5 17,9 18 10 32 17 WNW 1031,3 70 0 0,0
24.09.2018 23:00:00 8,3 4,1 7,0 8,1 11,9 17,9 23 13 34 18 WNW 1030,4 70 0 0,0
24.09.2018 22:00:00 8,6 4,7 7,3 8,6 12,3 17,9 21 11 36 20 W 1029,6 70 0 0,0
24.09.2018 21:00:00 9,4 4,9 8,1 9,2 12,7 18,0 24 13 40 22 W 1028,8 70 0 0,0
24.09.2018 20:00:00 10,1 4,4 8,9 9,8 13,2 18,0 23 12 41 22 W 1028,0 70 0 0,0
24.09.2018 19:00:00 10,5 3,9 9,3 11,1 13,5 18,1 26 14 49 26 W 1027,2 70 30 0,0
24.09.2018 18:00:00 12,0 3,5 12,1 12,6 13,5 18,1 32 17 50 27 W 1026,5 30 47 0,0
24.09.2018 17:00:00 12,9 3,8 13,7 12,6 13,5 18,1 25 13 54 29 W 1026,2 70 19 0,0
24.09.2018 16:00:00 13,0 3,2 13,0 14,1 13,2 18,2 33 18 50 27 WNW 1026,0 23 57 0,0
24.09.2018 15:00:00 12,4 4,3 12,9 12,4 13,0 18,2 30 16 53 29 WNW 1025,9 69 11 0,2
24.09.2018 14:00:00 12,6 3,9 13,7 13,6 12,6 18,3 39 21 59 32 WNW 1025,8 39 43 0,0
24.09.2018 13:00:00 12,1 5,7 12,8 12,2 12,2 18,3 36 20 52 28 WNW 1025,4 45 25 0,3
24.09.2018 12:00:00 11,3 5,4 11,9 12,1 11,8 18,3 35 19 57 31 W 1025,0 70 24 0,0
24.09.2018 11:00:00 10,9 5,9 11,7 11,1 11,4 18,4 34 19 59 32 W 1024,4 50 40 0,0
24.09.2018 10:00:00 10,3 5,6 10,9 9,8 11,2 18,4 32 17 49 27 W 1023,5 20 60 0,0
24.09.2018 09:00:00 9,1 5,7 9,0 8,5 11,2 18,4 32 17 49 26 W 1022,6 24 31 0,0
24.09.2018 08:00:00 8,0 6,0 7,4 8,0 11,5 18,5 20 11 35 19 W 1021,9 49 4 0,0
24.09.2018 07:00:00 7,8 5,9 6,7 8,1 11,7 18,5 22 12 39 21 W 1021,0 52 0 0,0
24.09.2018 06:00:00 8,0 6,2 6,9 8,5 12,0 18,5 24 13 40 22 W 1020,3 39 0 0,0
24.09.2018 05:00:00 8,4 6,4 7,3 9,0 12,2 18,6 24 13 38 21 W 1019,3 45 0 0,0
24.09.2018 04:00:00 8,9 6,9 8,2 9,4 12,4 18,6 22 12 37 20 W 1018,2 32 0 0,0
24.09.2018 03:00:00 8,8 7,2 7,9 9,5 12,6 18,6 23 12 32 18 W 1017,0 25 0 0,0
24.09.2018 02:00:00 8,6 7,2 7,9 9,5 12,8 18,6 21 11 32 17 W 1015,6 61 0 0,1
24.09.2018 01:00:00 8,5 7,4 8,0 9,7 13,1 18,7 19 10 31 17 W 1014,3 20 0 0,3
24.09.2018 00:00:00 8,5 7,1 7,9 9,9 13,4 18,7 21 12 34 18 NW 1013,1 17 0 0,0
23.09.2018 23:00:00 8,4 6,5 7,6 10,2 13,8 18,7 24 13 53 28 NNW 1010,8 45 0 0,7
23.09.2018 22:00:00 9,0 8,0 8,7 10,8 14,2 18,8 25 14 47 26 NNW 1008,0 3,6 0 0,9
23.09.2018 21:00:00 9,3 7,8 8,7 11,6 14,5 18,8 45 25 61 33 N 1005,7 7 0 2,2
23.09.2018 20:00:00 10,8 9,9 10,4 12,2 14,8 18,8 29 15 42 23 N 1003,2 22 0 0,2
23.09.2018 19:00:00 10,7 10,2 10,7 12,5 15,3 18,8 20 11 33 18 NE 1001,3 11 0 6,9
23.09.2018 18:00:00 10,9 10,4 10,9 13,0 15,7 18,9 13 7 29 16 ENE 1003,0 5 0 6,6
23.09.2018 17:00:00 11,1 10,6 11,2 13,9 16,0 18,9 14 7 26 14 ENE 1005,0 3,2 0 5,6
23.09.2018 16:00:00 11,7 10,9 11,6 15,3 16,0 18,9 10 5 20 11 ENE 1007,7 1,6 0 0,7
23.09.2018 15:00:00 12,7 10,4 12,5 16,2 15,8 19,0 9 5 24 13 SE 1009,2 4,9 0 0,1
23.09.2018 14:00:00 13,6 9,9 15,4 16,6 15,5 19,0 7 4 17 9 SSE 1011,0 47 0 0,0
23.09.2018 13:00:00 12,7 9,6 14,0 15,6 15,1 19,0 8 4 19 10 S 1013,0 56 0 0,0
23.09.2018 12:00:00 12,8 9,3 12,2 14,8 14,8 19,1 10 5 18 10 S 1014,0 21 0 0,1
23.09.2018 11:00:00 13,9 8,0 15,1 14,3 14,5 19,1 9 5 19 10 WSW 1014,2 70 0 0,0
23.09.2018 10:00:00 13,0 8,3 13,6 13,6 14,3 19,1 9 5 17 9 SSW 1015,1 70 0 0,0
23.09.2018 09:00:00 12,3 8,3 12,9 12,5 14,2 19,2 6 3 13 7 SSW 1015,1 59 0 0,0
23.09.2018 08:00:00 11,3 8,1 11,1 11,7 14,3 19,2 5 3 11 6 SSW 1015,7 70 0 0,0
23.09.2018 07:00:00 11,2 7,9 10,6 11,7 14,4 19,2 7 4 16 9 SW 1016,1 70 0 0,0
23.09.2018 06:00:00 11,3 7,7 10,6 11,8 14,6 19,2 10 5 14 8 SW 1016,3 70 0 0,0
23.09.2018 05:00:00 10,7 7,7 10,2 11,9 14,7 19,3 6 3 9 5 SSW 1016,8 63 0 0,0
23.09.2018 04:00:00 10,7 7,6 10,0 11,9 14,8 19,3 4 2 11 6 W 1017,1 66 0 0,0
23.09.2018 03:00:00 11,2 7,5 10,0 12,1 15,0 19,3 6 3 9 5 WSW 1017,5 70 0 0,0
23.09.2018 02:00:00 11,7 7,5 10,6 12,2 15,2 19,4 6 4 20 11 WSW 1017,7 57 0 0,0
23.09.2018 01:00:00 12,4 6,8 11,7 12,4 15,4 19,4 18 10 27 14 WNW 1017,8 59 0 0,0
23.09.2018 00:00:00 13,9 6,0 12,7 12,6 15,5 19,4 16 8 28 15 W 1017,6 41 0 0,0
22.09.2018 23:00:00 13,2 5,7 12,1 12,7 15,8 19,4 10 5 22 12 SW 1017,5 70 0 0,0
22.09.2018 22:00:00 12,4 6,3 11,0 13,0 16,0 19,5 9 5 13 7 S 1017,4 47 0 0,0
22.09.2018 21:00:00 12,8 6,9 10,8 13,4 16,3 19,5 8 4 11 6 SSW 1017,6 46 0 0,0
22.09.2018 20:00:00 13,0 6,2 10,6 13,8 16,6 19,6 6 4 11 6 S 1017,5 57 0 0,0
22.09.2018 19:00:00 15,1 5,4 13,1 14,5 16,8 19,6 8 5 21 12 SW 1017,7 70 0 0,0
22.09.2018 18:00:00 16,0 4,6 15,0 15,1 17,0 19,6 15 8 30 16 WSW 1018,0 70 0 0,0
22.09.2018 17:00:00 16,0 4,2 15,5 15,8 17,0 19,7 23 12 41 22 W 1018,5 70 0 0,0
22.09.2018 16:00:00 16,5 5,1 16,9 16,9 16,9 19,7 22 12 40 22 WSW 1018,7 52 11 0,0
22.09.2018 15:00:00 16,6 5,2 17,4 17,4 16,4 19,7 19 10 33 18 WSW 1018,7 67 20 0,0
22.09.2018 14:00:00 16,4 5,3 17,6 17,4 15,9 19,7 22 12 49 26 WSW 1019,0 55 37 0,0
22.09.2018 13:00:00 15,6 6,1 17,0 15,2 15,5 19,8 28 15 48 26 W 1019,4 43 13 0,0
22.09.2018 12:00:00 15,1 6,0 16,3 14,8 15,1 19,8 24 13 40 22 W 1019,5 70 17 0,0
22.09.2018 11:00:00 13,9 6,7 14,3 13,2 14,8 19,8 22 12 40 21 W 1019,6 57 3 0,0
22.09.2018 10:00:00 13,2 6,7 13,7 12,0 14,7 19,8 20 11 40 21 WSW 1019,5 58 5 0,0
22.09.2018 09:00:00 12,0 6,3 11,5 10,9 14,9 19,8 21 11 40 22 WSW 1018,9 61 2 0,0
22.09.2018 08:00:00 11,4 5,9 10,5 10,2 15,2 19,8 23 12 39 21 WSW 1018,0 58 6 0,0
22.09.2018 07:00:00 10,7 5,8 9,1 10,2 15,6 19,8 15 8 29 16 SW 1017,4 70 0 0,0
22.09.2018 06:00:00 11,2 5,7 9,6 10,5 16,1 19,8 18 10 28 15 SW 1016,9 70 0 0,0
22.09.2018 05:00:00 11,3 6,0 9,7 11,0 16,6 19,8 19 10 30 16 SW 1016,6 70 0 0,0
22.09.2018 04:00:00 11,6 6,7 10,0 11,6 17,1 19,8 17 9 29 16 SW 1016,0 70 0 0,0
22.09.2018 03:00:00 12,2 7,8 10,8 12,3 17,6 19,8 17 9 32 17 SW 1015,7 66 0 0,0
22.09.2018 02:00:00 12,6 9,5 11,1 13,0 18,2 19,8 18 10 27 15 SW 1015,2 54 0 0,0
22.09.2018 01:00:00 12,5 10,1 10,9 13,6 18,7 19,8 10 5 27 15 SW 1014,9 48 0 0,0
22.09.2018 00:00:00 12,9 10,9 11,6 14,3 19,3 19,8 13 7 23 12 WSW 1014,4 44 0 0,0
21.09.2018 23:00:00 13,0 11,3 11,9 15,0 19,9 19,8 14 8 25 14 SW 1013,7 42 0 0,0
21.09.2018 22:00:00 13,0 11,2 12,3 15,7 20,6 19,8 12 7 22 12 SW 1012,4 65 0 0,1
21.09.2018 21:00:00 13,1 11,2 12,4 16,2 21,4 19,8 10 5 20 11 SW 1011,2 37 0 0,2
21.09.2018 20:00:00 13,5 10,5 13,0 16,8 22,5 19,8 14 8 43 23 W 1010,0 54 0 0,0
21.09.2018 19:00:00 14,3 11,2 13,0 18,3 23,6 19,8 29 16 71 38 NW 1008,6 37 0 0,5
21.09.2018 18:00:00 18,1 14,7 16,2 22,3 24,2 19,8 36 20 66 35 WNW 1006,1 14 0 7,3
21.09.2018 17:00:00 28,0 12,4 27,5 27,9 24,0 19,8 19 10 50 27 SW 1004,1 39 0 0,0
21.09.2018 16:00:00 28,9 11,5 29,1 29,2 23,6 19,8 28 15 50 27 SW 1004,6 28 19 0,0
21.09.2018 15:00:00 30,3 11,1 31,7 29,7 22,9 19,8 29 16 49 26 SW 1004,8 34 44 0,0
21.09.2018 14:00:00 30,3 11,3 32,5 28,5 22,2 19,8 24 13 52 28 SSW 1005,6 25 36 0,0
21.09.2018 13:00:00 30,2 9,8 31,9 27,8 21,3 19,8 21 12 43 23 SW 1006,5 35 48 0,0
21.09.2018 12:00:00 29,3 11,0 32,0 25,5 20,6 19,8 21 12 38 21 SSW 1007,2 22 60 0,0
21.09.2018 11:00:00 26,8 10,6 28,5 22,6 20,2 19,8 22 12 37 20 S 1008,4 28 58 0,0
21.09.2018 10:00:00 24,6 11,5 25,1 20,4 20,0 19,8 17 9 30 16 S 1009,2 37 51 0,0
21.09.2018 09:00:00 21,4 12,8 21,2 18,4 20,1 19,8 13 7 23 13 S 1009,9 29 40 0,0
21.09.2018 08:00:00 18,7 12,7 17,5 17,8 20,3 19,8 13 7 19 11 SSE 1010,3 33 10 0,0
21.09.2018 07:00:00 17,3 12,5 14,8 17,8 20,6 19,8 10 6 16 9 S 1010,7 31 0 0,0
21.09.2018 06:00:00 17,2 12,5 14,7 18,1 20,9 19,8 9 5 15 8 S 1011,4 30 0 0,0
21.09.2018 05:00:00 17,2 12,7 13,8 18,5 21,2 19,7 10 5 15 8 S 1011,8 31 0 0,0
21.09.2018 04:00:00 17,3 12,8 14,1 18,9 21,6 19,7 10 6 14 8 S 1012,4 31 0 0,0
21.09.2018 03:00:00 17,5 12,7 14,4 19,3 22,0 19,7 8 5 13 7 S 1012,9 33 0 0,0
21.09.2018 02:00:00 17,9 12,6 14,4 19,9 22,4 19,7 10 5 13 7 S 1013,1 33 0 0,0
21.09.2018 01:00:00 18,6 12,6 14,5 20,5 22,8 19,7 9 5 13 7 S 1013,5 37 0 0,0
21.09.2018 00:00:00 18,6 12,6 14,4 21,2 23,2 19,7 9 5 12 6 S 1014,0 35 0 0,0
20.09.2018 23:00:00 19,2 12,5 15,7 22,1 23,7 19,7 8 4 11 6 S 1014,2 32 0 0,0
20.09.2018 22:00:00 20,3 12,4 17,0 23,2 24,2 19,7 9 5 11 6 S 1014,4 37 0 0,0
20.09.2018 21:00:00 21,2 12,5 18,0 24,5 24,6 19,7 8 5 9 5 S 1014,6 38 0 0,0
20.09.2018 20:00:00 23,7 12,0 19,5 26,3 24,8 19,7 8 4 11 6 SSW 1014,5 41 0 0,0
20.09.2018 19:00:00 27,1 12,5 23,9 28,3 24,8 19,7 5 3 19 10 SSW 1014,3 40 39 0,0
20.09.2018 18:00:00 29,7 12,2 30,1 29,5 24,5 19,7 11 6 32 17 WSW 1014,6 42 49 0,0
20.09.2018 17:00:00 30,5 12,1 32,7 30,2 24,1 19,7 13 7 29 15 WSW 1014,8 44 55 0,0

tt = temperature
td = dewpoint
tt 5cm = temperature 5cm
tt -5cm = temperature -5cm
tt -20cm = temperature -20cm
tt -100cm = temperature -100cm
ff = wind speed
fx = gusts
dd = wind direction
ppp = reduced air pressure
vv = visibility
sd = sunshine duration
rr = precipitation

Next stations